Regional Weather Roundup
Issued by NWS San Diego, CA

Home | Current Version | Previous Version | Text Only | Print | Product List | Glossary On
Versions: 1 2 3 4 5 6 7 8 9 10 11 12 13 14 15 16 17 18 19 20 21 22 23 24 25 26 27 28 29 30 31 32 33 34 35 36 37 38 39 40 41 42 43 44 45 46 47 48 49 50
000
ASUS46 KSGX 231810
RWRSGX

SAN DIEGO HOURLY WEATHER ROUNDUP
NATIONAL WEATHER SERVICE SAN DIEGO CA
1100 AM PDT THU OCT 23 2014

NOTE: "FAIR" INDICATES FEW OR NO CLOUDS BELOW 12,000 FEET WITH NO
SIGNIFICANT WEATHER AND/OR OBSTRUCTIONS TO VISIBILITY.

CAZ042-043-060-061-PZZ750-775-231900-

GREATER SAN DIEGO AREA

CITY           SKY/WX    TMP DP  RH WIND       PRES   REMARKS
LINDBERGH FLD  NOT AVBL
POINT LOMA       N/A     68  63  84 W9          N/A
NATIONAL CITY    N/A     76  59  55 SW3       30.00S
CHULA VISTA      N/A     75  60  60 W3        29.93S

$$

NORTH SAN DIEGO COUNTY

CITY           SKY/WX    TMP DP  RH WIND       PRES   REMARKS
OCEANSIDE AP   NOT AVBL
OCEANSIDE HBR    N/A     66  64  93 NW3       30.02S
VISTA            N/A     75  53  45 CALM      29.97F
DEL MAR          N/A     68  64  87 CALM      30.02S
LA JOLLA SCRIP   N/A     66  64  94 CALM      29.98R
FALLBROOK        N/A     82  43  25 CALM      29.98F
ESCONDIDO        N/A     83  47  27 W2        30.01S
SAN MARCOS       N/A     81  54  38 CALM      29.97S
POWAY            N/A     80  47  31 CALM      30.00F

$$

EAST SAN DIEGO COUNTY

CITY           SKY/WX    TMP DP  RH WIND       PRES   REMARKS
RAMONA         NOT AVBL
SANTEE LAKES     N/A     80  46  29 CALM      30.00S
LA MESA          N/A     79  50  35 W5        29.93S
JAMUL            N/A     82  47  29 W2        29.98F
DESCANSO N       N/A     83  32  16 CALM      29.91S
MT. LAGUNA OBS   N/A     70  22  16 CALM      29.81F

$$

ORANGE COUNTY AND THE LOS ANGELES BASIN

CITY           SKY/WX    TMP DP  RH WIND       PRES   REMARKS
JOHN WAYNE AP  NOT AVBL
LAKE FOREST FR   N/A     78  53  41 CALM      29.90S
SANTA ANA        N/A     69  65  88 CALM      29.95S
HUNTINGTON BCH   N/A     73  65  76 SW3       30.02S
L.A. DOWNTOWN  SUNNY     78  54  43 CALM      29.99S

$$

THE INLAND EMPIRE

CITY           SKY/WX    TMP DP  RH WIND       PRES   REMARKS
ONTARIO        NOT AVBL
RIVERSIDE AP   NOT AVBL
RIV CYN CREST    N/A     80  52  36 SW2       29.98F
MORENO VALLEY    N/A     83  41  22 E1        29.21F
PERRIS           N/A     79  39  23 CALM      30.04S
MENIFEE          N/A     80  45  29 CALM      30.10F
HEMET EAST       N/A     80  36  20 CALM      30.00S
FRENCH VALLEY  FAIR      77  37  24 CALM      30.03F
TEMECULA         N/A     72  48  41 CALM      30.00F

$$

SAN BERNARDINO AND RIVERSIDE COUNTY MOUNTAINS

CITY           SKY/WX    TMP DP  RH WIND       PRES   REMARKS
BIG BEAR AP    SUNNY     66  23  19 W9        30.31S
ANGELUS OAKS     N/A     68  31  25 CALM      29.98S
PINE COVE        N/A     74  20  13 SE2       29.93S

$$

SOUTHERN DESERT INCLUDING THE COACHELLA VALLEY

CITY           SKY/WX    TMP DP  RH WIND       PRES   REMARKS
PALM SPRINGS   NOT AVBL
THOUSAND PALMS   N/A     87  42  21 W1        29.96S
PALM DESERT      N/A     88  44  21 CALM        N/A
THERMAL        NOT AVBL

$$

UPPER DESERT

CITY           SKY/WX    TMP DP  RH WIND       PRES   REMARKS
VICTORVILLE AP SUNNY     73  28  19 NE6       30.11S
HESPERIA         N/A     74  32  21 E1        30.15F
APPLE VALLEY     N/A     78  29  16 CALM      30.13F
PALMDALE       NOT AVBL
DAGGETT        NOT AVBL

$$

REGIONAL REPORTS

CITY           SKY/WX    TMP DP  RH WIND       PRES   REMARKS
MT. WILSON       N/A    N/A N/A N/A MISG        N/A
LAS VEGAS NV   NOT AVBL
PHOENIX AZ     NOT AVBL

$$

OFFSHORE ISLANDS

CITY           SKY/WX    TMP DP  RH WIND       PRES   REMARKS
CATALINA ARPT  NOT AVBL

$$

MARINE AND OFFSHORE BUOY REPORTS

STATION/POSITION SKY/WX   TEMP    WIND        PRES    SWELL
                          AIR SEA DIR/SP/G            HT/PER/DIR
                          (F)     (DEG/KT/KT) (MB)    (FT/S/D)
TANNER BANKS               67 68  320/ 12/ 14 1015.8R   8/310/13
S CLEMENTE BASIN           69 71  290/  4/  6 1015.5R   5/290/13
SAN NICOLAS IS.               66                N/A     7/310/13
SO. S. ROSA ISLA           65 67  320/ 16/ 17 1015.4R   7/12
W. S. BARBARA CH           64 64  330/ 17/ 21 1015.1R   8/310/13
M. S. BARBARA CH           67 68  260/  2/  4 1016.0R
S. MONICA BASIN            72 72   CALM  /  2 1015.5R   5/260/12
S PEDRO CHANNEL               71                N/A     2/280/12
DANA POINT                    70                N/A     2/270/13
CMP PENDLETON NS              71                N/A     2/220/17
OCEANSIDE OFFSHR              71                N/A     2/250/12
TORREY PINES OTR              72                N/A     3/280/13
LA JOLLA 1                 70 70     CALM     1016.0R
MISSION BAY BUOY              72                N/A     3/280/13
SAN DIEGO BAY                 74              1016.2R
POINT LOMA SOUTH              71                N/A     3/280/13

$$




USA.gov is the U.S. government's official web portal to all federal, state and local government web resources and services.